Waukegan, IL

1:28 AM CDT on March 23, 2017 (GMT -0500)
Waukegan Regional

Weather History for KUGN - June, 2013

Change the Weather History Date:

Tuesday, June 4, 2013

  Actual Average Record
Temperature  
Mean Temperature 55 °F -  
Max Temperature 65 °F 72 °F 89 °F (2011)
Min Temperature 45 °F 51 °F 41 °F (2009)
Degree Days  
Heating Degree Days 10 5  
Month to date heating degree days 36 23  
Since 1 June heating degree days 36 23  
Since 1 July heating degree days 6624 6774  
Cooling Degree Days 0 2  
Month to date cooling degree days 5 6  
Year to date cooling degree days 52 31  
Since 1 June cooling degree days 5 6  
Growing Degree Days 4 (Base 50)    
Moisture  
Dew Point 44 °F    
Average Humidity 69    
Maximum Humidity 93    
Minimum Humidity 44    
Precipitation  
Precipitation T in 0.16 in 1.73 in (2002)
Month to date precipitation 0.20 0.65  
Year to date precipitation 14.06 13.51  
Sea Level Pressure  
Sea Level Pressure 30.14 in    
Wind  
Wind Speed 6 mph (NE)    
Max Wind Speed 13 mph    
Max Gust Speed 18 mph    
Visibility 10 miles    
Events      
T = Trace of Precipitation, MM = Missing Value Source: NWS Daily Summary

Daily Weather History Graph

Daily Weather History Graph

Search for Another Location

Airport or City:

Trip Planner

Search our weather history database for the weather conditions in past years. The results will help you decide how hot, cold, wet, or windy it might be!

Date:

Astronomy

Jun. 04, 2013 Rise Set
Actual Time 5:15 AM CDT 8:24 PM CDT
Civil Twilight 4:41 AM CDT 8:58 PM CDT
Nautical Twilight 3:57 AM CDT 9:42 PM CDT
Astronomical Twilight 3:05 AM CDT 10:35 PM CDT
Moon 2:49 AM CDT (6/4) 4:50 PM CDT (6/4)
Length of Visible Light 16h 17m
Length of Day
15h 08m
Waning Crescent, 14% of the Moon is Illuminated
Jun 4
Waning Crescent
Jun 8
New
Jun 16
First Quarter
Jun 23
Full
Jun 29
Last Quarter

Hourly Weather History & Observations

Time (CDT) Temp. Dew Point Humidity Pressure Visibility Wind Dir Wind Speed Gust Speed Precip Events Conditions
12:52 AM 51.1 °F 39.9 °F 66% 30.11 in 10.0 mi Calm Calm - N/A   Clear
1:52 AM 48.9 °F 42.1 °F 77% 30.11 in 10.0 mi Calm Calm - N/A   Clear
2:52 AM 46.0 °F 42.1 °F 86% 30.10 in 10.0 mi Calm Calm - N/A   Clear
3:52 AM 45.0 °F 42.1 °F 90% 30.11 in 10.0 mi Calm Calm - N/A   Clear
4:52 AM 46.0 °F 42.1 °F 86% 30.13 in 10.0 mi Calm Calm - N/A   Clear
5:52 AM 46.9 °F 44.1 °F 90% 30.14 in 10.0 mi Calm Calm - N/A   Clear
6:52 AM 55.0 °F 46.0 °F 72% 30.12 in 10.0 mi ENE 4.6 mph - N/A   Clear
7:52 AM 55.9 °F 43.0 °F 62% 30.16 in 10.0 mi East 6.9 mph - N/A   Clear
8:52 AM 57.9 °F 48.0 °F 70% 30.18 in 10.0 mi ESE 10.4 mph - N/A   Clear
9:52 AM 61.0 °F 44.1 °F 54% 30.17 in 10.0 mi SE 8.1 mph - N/A   Clear
10:52 AM 62.1 °F 44.1 °F 52% 30.18 in 10.0 mi SSE 10.4 mph - N/A   Clear
11:52 AM 64.0 °F 42.1 °F 45% 30.17 in 10.0 mi East 6.9 mph - N/A   Clear
12:52 PM 63.0 °F 42.1 °F 46% 30.16 in 10.0 mi ENE 8.1 mph - N/A   Clear
1:52 PM 62.1 °F 44.1 °F 52% 30.16 in 10.0 mi East 8.1 mph - N/A   Clear
2:52 PM 62.1 °F 46.0 °F 56% 30.15 in 10.0 mi East 8.1 mph - N/A   Clear
3:52 PM 60.1 °F 46.0 °F 60% 30.14 in 10.0 mi NE 6.9 mph - N/A   Clear
4:52 PM 62.1 °F 43.0 °F 50% 30.14 in 10.0 mi NNE 8.1 mph - N/A   Clear
5:52 PM 61.0 °F 42.1 °F 50% 30.13 in 10.0 mi NE 10.4 mph - N/A   Clear
6:52 PM 57.9 °F 44.1 °F 60% 30.11 in 10.0 mi NE 6.9 mph - N/A   Clear
7:52 PM 54.0 °F 46.0 °F 75% 30.12 in 10.0 mi NNE 5.8 mph - N/A   Clear
8:52 PM 52.0 °F 44.1 °F 74% 30.12 in 10.0 mi North 5.8 mph - N/A   Clear
9:52 PM 53.1 °F 42.1 °F 66% 30.13 in 10.0 mi North 4.6 mph - N/A   Partly Cloudy
10:52 PM 53.1 °F 43.0 °F 69% 30.13 in 10.0 mi North 5.8 mph - N/A   Mostly Cloudy
11:52 PM 52.0 °F 44.1 °F 74% 30.12 in 10.0 mi North 3.5 mph - 0.00 in   Overcast